, CA

(GMT )
Vandenberg AFB

Weather History for KVBG - July, 2013

Change the Weather History Date:

Wednesday, July 17, 2013

  Actual Average Record
Temperature  
Mean Temperature 60 °F -  
Max Temperature 64 °F 64 °F 75 °F (2003)
Min Temperature 55 °F 52 °F 51 °F (2006)
Degree Days  
Heating Degree Days 6    
Growing Degree Days 10 (Base 50)    
Moisture  
Dew Point 53 °F    
Average Humidity 83    
Maximum Humidity 94    
Minimum Humidity 65    
Precipitation  
Precipitation 0.00 in - - ()
Sea Level Pressure  
Sea Level Pressure 30.05 in    
Wind  
Wind Speed 10 mph (NW)    
Max Wind Speed 17 mph    
Max Gust Speed 23 mph    
Visibility 10 miles    
Events      
Averages and records for this station are not official NWS values.
T = Trace of Precipitation, MM = Missing Value Source: NWS Daily Summary

Daily Weather History Graph

Daily Weather History Graph

Search for Another Location

Airport or City:

Trip Planner

Search our weather history database for the weather conditions in past years. The results will help you decide how hot, cold, wet, or windy it might be!

Date:

Astronomy

Jul. 17, 2013 Rise Set
Actual Time 6:01 AM PDT 8:14 PM PDT
Civil Twilight 5:33 AM PDT 8:43 PM PDT
Nautical Twilight 4:58 AM PDT 9:18 PM PDT
Astronomical Twilight 4:19 AM PDT 9:56 PM PDT
Moon 3:12 PM PDT (7/17) 1:07 AM PDT (7/17)
Length of Visible Light 15h 10m
Length of Day
14h 12m
Waxing Gibbous, 68% of the Moon is Illuminated
Jul 17
Waxing Gibbous
Jul 22
Full
Jul 29
Last Quarter
Aug 6
New
Aug 14
First Quarter

Hourly Weather History & Observations

Time (PDT) Temp. Dew Point Humidity Pressure Visibility Wind Dir Wind Speed Gust Speed Precip Events Conditions
12:06 AM 55.4 °F 53.6 °F 94% 30.05 in 10.0 mi NNW 8.1 mph - N/A   Mostly Cloudy
12:55 AM 55.9 °F 54.0 °F 93% 30.02 in 10.0 mi North 9.2 mph - N/A   Overcast
1:17 AM 55.4 °F 53.6 °F 94% 30.05 in 10.0 mi North 6.9 mph - N/A   Overcast
1:43 AM 55.4 °F 53.6 °F 94% 30.04 in 10.0 mi NNW 12.7 mph - N/A   Overcast
1:55 AM 55.9 °F 53.1 °F 90% 30.02 in 10.0 mi NNW 11.5 mph - N/A   Overcast
2:43 AM 55.4 °F 53.6 °F 94% 30.04 in 10.0 mi NNW 10.4 mph - N/A   Overcast
2:55 AM 55.9 °F 53.1 °F 90% 30.01 in 10.0 mi NNW 10.4 mph - N/A   Overcast
3:13 AM 55.4 °F 51.8 °F 88% 30.04 in 10.0 mi North 5.8 mph - N/A   Overcast
3:55 AM 55.9 °F 53.1 °F 90% 30.01 in 10.0 mi NW 8.1 mph - N/A   Overcast
4:55 AM 55.9 °F 53.1 °F 90% 30.01 in 10.0 mi NNW 9.2 mph - N/A   Overcast
5:32 AM 55.4 °F 53.6 °F 94% 30.04 in 10.0 mi NNW 6.9 mph - N/A   Overcast
5:55 AM 55.0 °F 52.0 °F 89% 30.02 in 10.0 mi WNW 5.8 mph - N/A   Overcast
6:55 AM 55.0 °F 52.0 °F 89% 30.04 in 6.0 mi North 3.5 mph - N/A   Overcast
7:55 AM 55.0 °F 52.0 °F 89% 30.06 in 6.0 mi North 6.9 mph - N/A   Overcast
8:32 AM 55.4 °F 51.8 °F 88% 30.09 in 6.0 mi Calm Calm - N/A   Overcast
8:55 AM 57.0 °F 52.0 °F 83% 30.07 in 8.0 mi NW 8.1 mph - N/A   Overcast
9:14 AM 57.2 °F 51.8 °F 82% 30.09 in 10.0 mi NNW 6.9 mph - N/A   Overcast
9:55 AM 57.9 °F 52.0 °F 81% 30.07 in 10.0 mi West 5.8 mph - N/A   Overcast
10:55 AM 61.0 °F 52.0 °F 72% 30.07 in 10.0 mi Variable 5.8 mph - N/A   Mostly Cloudy
11:02 AM 62.6 °F 51.8 °F 68% 30.09 in 10.0 mi NW 12.7 mph 18.4 mph N/A   Scattered Clouds
11:55 AM 64.0 °F 52.0 °F 65% 30.07 in 10.0 mi NW 12.7 mph - N/A   Scattered Clouds
12:55 PM 64.0 °F 52.0 °F 65% 30.08 in 10.0 mi NW 13.8 mph 20.7 mph N/A   Scattered Clouds
1:55 PM 63.0 °F 53.1 °F 70% 30.07 in 10.0 mi NW 12.7 mph - N/A   Scattered Clouds
2:55 PM 64.0 °F 53.1 °F 67% 30.07 in 10.0 mi NW 16.1 mph 21.9 mph N/A   Scattered Clouds
3:55 PM 63.0 °F 53.1 °F 70% 30.06 in 10.0 mi NW 11.5 mph - N/A   Scattered Clouds
4:55 PM 62.1 °F 53.1 °F 72% 30.05 in 10.0 mi NW 16.1 mph - N/A   Mostly Cloudy
5:10 PM 62.6 °F 53.6 °F 72% 30.07 in 10.0 mi NW 17.3 mph - N/A   Mostly Cloudy
5:50 PM 60.8 °F 53.6 °F 77% 30.07 in 10.0 mi NW 16.1 mph - N/A   Overcast
5:55 PM 60.1 °F 53.1 °F 78% 30.04 in 10.0 mi NW 13.8 mph - N/A   Overcast
6:46 PM 59.0 °F 53.6 °F 82% 30.06 in 10.0 mi NW 15.0 mph - N/A   Overcast
6:55 PM 59.0 °F 53.1 °F 81% 30.04 in 10.0 mi NW 15.0 mph 23.0 mph N/A   Overcast
7:55 PM 57.0 °F 53.1 °F 87% 30.04 in 10.0 mi NW 17.3 mph - N/A   Overcast
8:55 PM 57.0 °F 53.1 °F 87% 30.05 in 10.0 mi NNW 12.7 mph - N/A   Overcast
9:55 PM 57.0 °F 53.1 °F 87% 30.06 in 10.0 mi NNW 13.8 mph - N/A   Overcast
10:55 PM 55.9 °F 52.0 °F 87% 30.05 in 10.0 mi NNW 16.1 mph - N/A   Overcast
11:06 PM 55.4 °F 53.6 °F 94% 30.08 in 10.0 mi NNW 15.0 mph - N/A   Overcast
11:55 PM 55.9 °F 53.1 °F 90% 30.05 in 10.0 mi NNW 15.0 mph - N/A   Overcast